When you browse on this site, cookies collect data to enhance your experience and personalize the content and advertising you see.
Visit our Privacy Policy to learn more. By continuing to use the site, you agree to this use of cookies and data.
  • In Hungary
  • List of Countries
  • For 7 days
  • Water Temperature
  • Satellite Maps
  • Weather Map
  • News
  • Weather Widgets
  • user-avatar
    Login

    Hourly Weather Makow Podhalanski

    Today, 19 June, Wednesday

    Time Temperature Precipitation Wind Pressure Humidity
    00:00 +16°C° 0 mm 1 mps 712 mmHg 95%
    01:00 +16°C° 0 mm 1 mps 711 mmHg 95%
    02:00 +15°C° 0 mm 1 mps 711 mmHg 94%
    03:00 +15°C° 0 mm 1 mps 711 mmHg 94%
    04:00 +15°C° 0 mm 1 mps 711 mmHg 94%
    05:00 +18°C° 0 mm 1 mps 711 mmHg 90%
    06:00 +19°C° 0 mm 1 mps 711 mmHg 87%
    07:00 +19°C° 0 mm 0 mps 711 mmHg 83%
    08:00 +21°C° 0.1 mm 0 mps 711 mmHg 75%
    09:00 +25°C° 0.1 mm 1 mps 711 mmHg 67%
    10:00 +27°C° 0.1 mm 1 mps 711 mmHg 59%
    11:00 +27°C° 0.7 mm 1 mps 711 mmHg 59%
    12:00 +27°C° 0.7 mm 1 mps 711 mmHg 60%
    13:00 +25°C° 0.7 mm 0 mps 711 mmHg 60%
    14:00 +27°C° 0.5 mm 1 mps 710 mmHg 64%
    15:00 +26°C° 0.5 mm 1 mps 710 mmHg 67%
    16:00 +26°C° 0.5 mm 1 mps 709 mmHg 70%
    17:00 +24°C° 0.2 mm 1 mps 709 mmHg 74%
    18:00 +23°C° 0.2 mm 1 mps 709 mmHg 78%
    19:00 +20°C° 0.2 mm 0 mps 709 mmHg 82%
    20:00 +21°C° 0.1 mm 1 mps 709 mmHg 83%
    21:00 +20°C° 0.1 mm 1 mps 709 mmHg 85%
    22:00 +19°C° 0.1 mm 1 mps 709 mmHg 86%
    23:00 +19°C° 0 mm 1 mps 709 mmHg 86%

    Tomorrow, 20 June, Thursday

    Time Temperature Precipitation Wind Pressure Humidity
    00:00 +18°C° 0 mm 1 mps 709 mmHg 86%
    01:00 +18°C° 0 mm 1 mps 709 mmHg 86%
    02:00 +18°C° 0 mm 1 mps 709 mmHg 86%
    03:00 +16°C° 0 mm 1 mps 709 mmHg 86%
    04:00 +16°C° 0 mm 1 mps 708 mmHg 87%
    05:00 +19°C° 0 mm 1 mps 709 mmHg 82%
    06:00 +21°C° 0 mm 1 mps 709 mmHg 78%
    07:00 +22°C° 0 mm 1 mps 710 mmHg 74%
    08:00 +24°C° 0.5 mm 1 mps 710 mmHg 71%
    09:00 +25°C° 0.5 mm 1 mps 710 mmHg 69%
    10:00 +26°C° 0.5 mm 1 mps 710 mmHg 67%
    11:00 +24°C° 0.8 mm 0 mps 710 mmHg 65%
    12:00 +24°C° 0.8 mm 0 mps 710 mmHg 63%
    13:00 +25°C° 0.8 mm 0 mps 710 mmHg 61%
    14:00 +26°C° 0.6 mm 1 mps 710 mmHg 66%
    15:00 +26°C° 0.6 mm 1 mps 710 mmHg 70%
    16:00 +25°C° 0.6 mm 1 mps 709 mmHg 75%
    17:00 +24°C° 0.1 mm 1 mps 709 mmHg 77%
    18:00 +23°C° 0.1 mm 1 mps 709 mmHg 80%
    19:00 +22°C° 0.1 mm 1 mps 709 mmHg 82%
    20:00 +21°C° 0.2 mm 1 mps 709 mmHg 84%
    21:00 +20°C° 0.2 mm 1 mps 709 mmHg 86%
    22:00 +19°C° 0.2 mm 1 mps 709 mmHg 87%
    23:00 +18°C° 0.3 mm 1 mps 709 mmHg 88%

    Day after tomorrow, 21 June, Friday

    Time Temperature Precipitation Wind Pressure Humidity
    00:00 +18°C° 0.3 mm 1 mps 709 mmHg 89%
    01:00 +16°C° 0.3 mm 1 mps 709 mmHg 90%
    02:00 +16°C° 0 mm 1 mps 709 mmHg 91%
    03:00 +16°C° 0 mm 1 mps 709 mmHg 91%
    04:00 +16°C° 0 mm 1 mps 709 mmHg 91%
    05:00 +18°C° 0.1 mm 1 mps 710 mmHg 89%
    06:00 +20°C° 0.1 mm 1 mps 710 mmHg 87%
    07:00 +21°C° 0.1 mm 1 mps 711 mmHg 85%
    08:00 +22°C° 0.9 mm 1 mps 711 mmHg 84%
    09:00 +23°C° 0.9 mm 1 mps 711 mmHg 82%
    10:00 +23°C° 0.9 mm 1 mps 711 mmHg 81%
    11:00 +24°C° 2 mm 1 mps 711 mmHg 79%
    12:00 +24°C° 2 mm 1 mps 711 mmHg 77%
    13:00 +25°C° 2 mm 1 mps 711 mmHg 76%
    14:00 +24°C° 1.8 mm 1 mps 711 mmHg 78%
    15:00 +24°C° 1.8 mm 1 mps 711 mmHg 81%
    16:00 +23°C° 1.8 mm 2 mps 710 mmHg 84%
    17:00 +22°C° 0.5 mm 1 mps 710 mmHg 86%
    18:00 +22°C° 0.5 mm 1 mps 710 mmHg 88%
    19:00 +21°C° 0.5 mm 1 mps 710 mmHg 90%
    20:00 +20°C° 0.2 mm 1 mps 710 mmHg 91%
    21:00 +19°C° 0.2 mm 1 mps 711 mmHg 93%
    22:00 +18°C° 0.2 mm 1 mps 711 mmHg 94%
    23:00 +18°C° 0 mm 1 mps 711 mmHg 95%

    22 June, Saturday

    Time Temperature Precipitation Wind Pressure Humidity
    00:00 +18°C° 0 mm 1 mps 711 mmHg 95%
    01:00 +16°C° 0 mm 1 mps 711 mmHg 96%
    02:00 +16°C° 0.4 mm 1 mps 711 mmHg 96%
    03:00 +16°C° 0.4 mm 1 mps 711 mmHg 96%
    04:00 +16°C° 0.4 mm 1 mps 711 mmHg 97%
    05:00 +18°C° 0.1 mm 1 mps 711 mmHg 95%
    06:00 +19°C° 0.1 mm 1 mps 711 mmHg 93%
    07:00 +20°C° 0.1 mm 1 mps 712 mmHg 91%
    08:00 +21°C° 0.1 mm 1 mps 712 mmHg 86%
    09:00 +21°C° 0.1 mm 1 mps 712 mmHg 82%
    10:00 +22°C° 0.1 mm 1 mps 712 mmHg 77%
    11:00 +22°C° 0.9 mm 1 mps 712 mmHg 79%
    12:00 +22°C° 0.9 mm 1 mps 712 mmHg 81%
    13:00 +22°C° 0.9 mm 1 mps 712 mmHg 83%
    14:00 +21°C° 1.3 mm 1 mps 711 mmHg 87%
    15:00 +21°C° 1.3 mm 1 mps 711 mmHg 91%
    16:00 +20°C° 1.3 mm 1 mps 711 mmHg 95%
    17:00 +19°C° 1.3 mm 1 mps 710 mmHg 96%
    18:00 +19°C° 1.3 mm 1 mps 710 mmHg 97%
    19:00 +18°C° 1.3 mm 1 mps 710 mmHg 98%
    20:00 +16°C° 0.8 mm 0 mps 710 mmHg 98%
    21:00 +16°C° 0.8 mm 0 mps 710 mmHg 98%
    22:00 +15°C° 0.8 mm 0 mps 710 mmHg 97%
    23:00 +15°C° 0.2 mm 0 mps 710 mmHg 97%

    23 June, Sunday

    Time Temperature Precipitation Wind Pressure Humidity
    00:00 +15°C° 0.2 mm 0 mps 710 mmHg 98%
    01:00 +15°C° 0.2 mm 0 mps 710 mmHg 98%
    02:00 +16°C° 0.2 mm 1 mps 710 mmHg 98%
    03:00 +15°C° 0.2 mm 1 mps 710 mmHg 97%
    04:00 +15°C° 0.2 mm 1 mps 709 mmHg 97%
    05:00 +16°C° 0.1 mm 1 mps 710 mmHg 95%
    06:00 +18°C° 0.1 mm 1 mps 710 mmHg 93%
    07:00 +18°C° 0.1 mm 2 mps 710 mmHg 91%
    08:00 +19°C° 0.2 mm 2 mps 710 mmHg 89%
    09:00 +19°C° 0.2 mm 2 mps 710 mmHg 88%
    10:00 +19°C° 0.2 mm 3 mps 711 mmHg 87%
    11:00 +18°C° 0.2 mm 3 mps 711 mmHg 88%
    12:00 +17°C° 0.2 mm 3 mps 711 mmHg 89%
    13:00 +16°C° 0.2 mm 3 mps 711 mmHg 90%
    14:00 +16°C° 0 mm 3 mps 711 mmHg 90%
    15:00 +14°C° 0 mm 3 mps 711 mmHg 90%
    16:00 +14°C° 0 mm 3 mps 711 mmHg 89%
    17:00 +14°C° 0 mm 3 mps 712 mmHg 90%
    18:00 +13°C° 0 mm 3 mps 712 mmHg 91%
    19:00 +13°C° 0 mm 3 mps 712 mmHg 92%
    20:00 +13°C° 0.3 mm 3 mps 713 mmHg 94%
    21:00 +12°C° 0.3 mm 3 mps 713 mmHg 95%
    22:00 +12°C° 0.3 mm 3 mps 713 mmHg 96%
    23:00 +12°C° 0.4 mm 3 mps 713 mmHg 97%

    24 June, Monday

    Time Temperature Precipitation Wind Pressure Humidity
    00:00 +11°C° 0.4 mm 3 mps 714 mmHg 97%
    01:00 +12°C° 0.4 mm 2 mps 714 mmHg 98%
    02:00 +12°C° 0.5 mm 2 mps 714 mmHg 97%
    03:00 +12°C° 0.5 mm 2 mps 714 mmHg 97%
    04:00 +12°C° 0.5 mm 2 mps 714 mmHg 97%
    05:00 +12°C° 0.2 mm 2 mps 715 mmHg 96%
    06:00 +12°C° 0.2 mm 2 mps 715 mmHg 95%
    07:00 +13°C° 0.2 mm 2 mps 716 mmHg 94%
    08:00 +13°C° 0 mm 2 mps 716 mmHg 90%
    09:00 +14°C° 0 mm 2 mps 716 mmHg 86%
    10:00 +15°C° 0 mm 2 mps 717 mmHg 82%
    11:00 +17°C° 0 mm 2 mps 717 mmHg 74%
    12:00 +18°C° 0 mm 2 mps 717 mmHg 66%
    13:00 +19°C° 0 mm 3 mps 717 mmHg 58%
    14:00 +19°C° 0 mm 3 mps 717 mmHg 57%
    15:00 +20°C° 0 mm 3 mps 717 mmHg 57%
    16:00 +20°C° 0 mm 3 mps 717 mmHg 56%
    17:00 +19°C° 0 mm 2 mps 717 mmHg 64%
    18:00 +17°C° 0 mm 2 mps 717 mmHg 72%
    19:00 +16°C° 0 mm 1 mps 717 mmHg 80%
    20:00 +15°C° 0 mm 1 mps 718 mmHg 83%
    21:00 +13°C° 0 mm 1 mps 718 mmHg 86%
    22:00 +12°C° 0 mm 1 mps 718 mmHg 89%
    23:00 +11°C° 0 mm 0 mps 718 mmHg 90%
    Show more